Home > Weather > Moncton > Past weeks

Flag for Canada Past Weather in Moncton, New Brunswick, Canada — Yesterday and Last 2 Weeks

Now
81 °F

Broken clouds.


Feels Like: 81 °F
Forecast: 64 / 83 °F
Wind: 20 mph from Southwest

Location: Moncton

Current Time: Aug 25, 2016 at 3:47:22 PM

Latest Report: Aug 25, 2016 at 3:00 PM


Visibility: 15 mi

Pressure: 29.92 "Hg

Humidity: 51%

Dew Point: 61 °F

Location of MonctonLocation

Past Weather in Moncton — Graph

°F

Moncton Temperature Yesterday

Maximum temperature yesterday: 82 °F (at 5:00 PM)
Minimum temperature yesterday: 59 °F (at 5:00 AM)
Average temperature yesterday: 71 °F

High & Low Weather Summary for the Past Weeks

 TemperatureHumidityPressure
High84 °F (Aug 10, 2:00 PM)100% (Aug 11, 10:00 PM)30.20 "Hg (Aug 11, 10:00 PM)
Low54 °F (Aug 13, 3:00 AM)37% (Aug 10, 3:00 PM)29.65 "Hg (Aug 22, 7:00 PM)
Average66 °F82%29.95 "Hg
* Reported Aug 10 2:00 PM — Aug 25 2:00 PM, Moncton, Weather by CustomWeather, © 2016

Note: Actual official high and low records may vary slightly from our data, if they occured in-between our weather recording intervals... More about our weather records

Advertising

Moncton Weather History for the Previous 24 Hours

Scroll right to see more
 ConditionsComfort  
Time TempWeatherWind HumidityBarometerVisibility
2:00 PM
Thu, Aug 25
82 °FBroken clouds.24 mph51%29.93 "Hg15 mi
1:00 PM84 °FBroken clouds.16 mph55%29.95 "Hg15 mi
12:00 PM81 °FMore clouds than sun.15 mph58%29.96 "Hg15 mi
11:00 AM77 °FOvercast.9 mph69%29.98 "Hg15 mi
10:00 AM72 °FMostly cloudy.8 mph78%29.99 "Hg15 mi
9:00 AM70 °FOvercast.7 mph78%30.01 "Hg15 mi
8:00 AM63 °FMore clouds than sun.7 mph88%30.02 "Hg15 mi
7:00 AM59 °FOvercast.6 mph94%30.02 "Hg15 mi
6:00 AM59 °FPassing clouds.6 mph94%30.01 "Hg15 mi
5:00 AM59 °FPassing clouds.7 mph94%30.01 "Hg15 mi
4:00 AM59 °FPassing clouds.7 mph100%30.02 "Hg15 mi
3:00 AM61 °FPassing clouds.7 mph94%30.03 "Hg15 mi
2:00 AM61 °FPassing clouds.7 mph94%30.04 "Hg15 mi
1:00 AM64 °FPassing clouds.7 mph83%30.04 "Hg15 mi
12:00 AM66 °FPassing clouds.8 mph78%30.05 "Hg15 mi
11:00 PM
Wed, Aug 24
70 °FPassing clouds.8 mph73%30.06 "Hg15 mi
10:00 PM72 °FPassing clouds.12 mph73%30.06 "Hg15 mi
9:00 PM73 °FPartly sunny.13 mph74%30.05 "Hg15 mi
8:00 PM77 °FPartly sunny.13 mph69%30.05 "Hg15 mi
7:00 PM79 °FPartly sunny.9 mph61%30.05 "Hg15 mi
6:00 PM81 °FScattered clouds.13 mph58%30.05 "Hg15 mi
5:00 PM82 °FBroken clouds.12 mph51%30.06 "Hg15 mi
4:00 PM79 °FBroken clouds.12 mph58%30.06 "Hg15 mi
3:00 PM81 °FPartly sunny.15 mph54%30.07 "Hg15 mi
Weather by CustomWeather, © 2016

See weather overviewHow to use our weather pages